STARLINK-35145

Satellite information

Favourite Embed

Satellite Type and Status

PAYLOADIN ORBIT

Key statistics

Satellite STARLINK-35145 at a glance.

Uptime

29

Days in orbit

Revolutions

≈ 15.3

Per day

Orbit

LEO

Low Earth Orbit

Inclination

53.2

Latest

Satellite identification and parameters

Extended collection of information and parameters for STARLINK-35145.

Object identification

Identified? True

Debris? False

Object name: STARLINK-35145

International designator: 2025-212K

Object number (NORAD): 65685

Object ID (CCSDS): 65685

Country: UNITED STATES OF AMERICA (US)

Current information (Y/N): Y

Orbital parameters

Period: 93.998 minutes

Inclination: 53.1604 deg

SMA: 6848.14 km

Apoapsis: 470.865 km

Periapsis: 469.144 km

RAAN: 279.4337 deg

Eccentricy: 0.00012559

Argument of periapsis: 69.3688 deg

Mean anomaly: 141.8991 deg

Mean motion: 15.31947418 rev/day

Mean motion (dot): -0.01287926 rev/day2

B* drag term: -0.04499787 1/REarth

Two-line elements (TLE)

Creation date: Oct. 20, 2025, 2:10 a.m.

Reference frame: TEME

Reference center: EARTH

Epoch: Oct. 20, 2025, midnight UTC

TLE line 0: 0 STARLINK-35145

TLE line 1: 1 65685U 25212K 25293.00001157 -.01287926 00000-0 -44998-1 0 9999

TLE line 2: 2 65685 53.1604 279.4337 0001256 69.3688 141.8991 15.31947418 5630

Live tracking on map

Real-time ground track for satellite STARLINK-35145.

In-orbit conjunctions

There are no conjunctions computed for STARLINK-35145, at the moment. Check back to stay up to date, as we update our databases every day.

Go to all conjunctions

Associated space launch

A batch of 28 satellites for the Starlink mega-constellation - SpaceX's project for space-based Internet communication system.

STARLINK-35145 was lifted into orbit during the mission ‘Falcon 9 Block 5 | Starlink Group 10-27’, on board a Falcon 9 space rocket.

The launch took place on Sept. 21, 2025, 10:53 a.m. from Space Launch Complex 40.

For more information about the launch, click the button.

Launch to space Falcon 9 Block 5 | Starlink Group 10-27
Falcon 9 Block 5 | Starlink Group 10-27

Agency: SpaceX

Status: Launch Successful

Launch date: Sept. 21, 2025, 10:53 a.m. UTC

Rocket: Falcon 9

Launch pad: Space Launch Complex 40

Location: Cape Canaveral SFS, FL, USA

...

Latest news about this satellite

News about space launch
Live coverage: SpaceX to launch 28 Starlink satellites on Falcon 9 rocket from Cape Canaveral

The Starlink 10-27 mission will be the 280th orbital launch for SpaceX from Cape Canaveral Space Force Station. Liftoff from Space Launch Complex 40 is scheduled for 6:53 a.m. EDT (1053 UTC).

News about space launch
Launch Roundup: Starlink, NRO, and New Shepard missions scheduled

Another busy week of launches has arrived, with SpaceX dominating the launch manifest with four… The post Launch Roundup: Starlink, NRO, and New Shepard missions scheduled appeared first on NASASpaceFlight.com.


Newsletter sign-up

Weekly statistics, charts and insights to help you stay on top of the space industry.